Location: Archemont
(49.1579°N, 1.7598°E)
Time: 09:24:33
(UTC+00:00)

deb Explorer IX - Pass Details

Date: 13 April 2024
Orbit: 513 x 891 km, 38.7° (Epoch: 23 May)

Event Time Altitude Azimuth Distance (km) Brightness Sun altitude
Rises 15:32:09 0° 245° (WSW) 3,502 ? 29.8°
Reaches altitude 10° 15:35:05 10° 235° (SW) 2,534 ? 29.3°
Maximum altitude 15:40:13 29° 177° (S) 1,493 ? 28.5°
Drops below altitude 10° 15:45:01 10° 119° (ESE) 2,360 ? 27.8°
Sets 15:47:40 0° 108° (ESE) 3,223 ? 27.4°
